Zurück zum Katalog

STARLINK-36660

AktivKommunikationVLEO
NORAD 67848·PAYLOAD·🇺🇸 United States

Gestartet Feb 16, 2026 von Vandenberg Space Force Base

Loading…

Nächste Überflüge (nächste 24 Stunden)

TLE

AktuellSource: CelesTrak SupGP

Epoche: Sep 14, 2026, 23:16 UTC

1 67848C 26033AD  26257.96993056  .00028647  00000+0  10376-2 0  2578
2 67848  43.0010 278.3505 0001545 265.5251 291.3248 15.27565487    14

Verfolge STARLINK-36660 in Echtzeit mit AllMySat

Download on the App Store